period_start,C,m1,H,J0,J1,J2,J3,J4,J5,JA,JB,JC,JD,JJ,JK,JN,#
2015-04-03 00:04:34,0.03,2.33,0.00,24.37,28.37,31.29,4.90,28.18,1033.23,2026.00,2565.56,2691.97,2895.01,350.54,352.26,15.41,0000 0000 0000 0000 000000
2015-04-03 00:09:35,0.11,2.34,0.00,24.37,28.37,31.28,4.80,28.07,1033.23,2026.00,2564.64,2691.29,2894.55,349.91,351.69,15.44,0000 0000 0000 0000 000000
2015-04-03 00:14:36,0.18,2.34,0.00,24.32,28.37,31.28,4.87,28.15,1033.23,2026.00,2562.83,2690.08,2893.17,350.11,352.01,15.47,0000 0000 0000 0000 000000
2015-04-03 00:19:37,0.14,2.35,0.00,24.31,28.37,31.33,4.87,28.17,1033.23,2026.00,2561.38,2689.07,2892.06,350.19,351.96,15.50,0000 0000 0000 0000 000000
2015-04-03 00:24:39,0.13,2.35,0.00,24.35,28.37,31.35,4.90,28.11,1033.24,2026.01,2560.27,2688.26,2891.16,350.13,351.85,15.53,0000 0000 0000 0000 000000
2015-04-03 00:29:40,0.08,2.35,0.00,24.71,28.37,31.37,4.81,27.98,1033.24,2026.00,2559.41,2687.84,2890.48,350.31,351.65,15.56,0000 0000 0000 0000 000000
2015-04-03 00:34:41,0.05,2.36,0.00,24.58,28.37,31.39,4.89,28.03,1033.24,2026.00,2558.99,2687.12,2890.00,350.10,351.54,15.59,0000 0000 0000 0000 000000
2015-04-03 00:39:43,0.06,2.36,0.00,24.70,28.37,31.40,4.90,28.22,1033.23,2026.00,2558.17,2686.99,2889.48,350.58,351.80,15.62,0000 0000 0000 0000 000000
2015-04-03 00:44:44,0.07,2.36,0.00,24.74,28.37,31.35,4.84,28.09,1033.24,2026.00,2557.75,2686.53,2889.01,349.82,351.05,15.65,0000 0000 0000 0000 000000
2015-04-03 00:49:46,0.06,2.36,0.00,24.74,28.37,31.30,4.90,27.98,1033.26,2026.03,2557.03,2686.03,2888.76,350.02,351.57,15.68,0000 0000 0000 0000 000000
2015-04-03 00:54:47,0.06,2.36,0.00,24.77,28.37,31.27,4.80,28.04,1033.24,2026.00,2556.28,2685.85,2888.03,349.99,351.12,15.71,0000 0000 0000 0000 000000
2015-04-03 00:59:48,0.09,2.36,0.00,24.90,28.37,31.25,4.80,28.12,1033.25,2026.01,2555.77,2685.12,2887.58,349.99,350.95,15.73,0000 0000 0000 0000 000000
2015-04-03 01:04:49,0.04,2.37,0.00,24.88,28.35,31.24,4.87,28.18,1033.30,2026.01,2554.99,2684.89,2887.01,350.13,351.36,15.76,0000 0000 0000 0000 000000
2015-04-03 01:09:51,0.11,2.37,0.00,24.85,28.35,31.22,4.83,28.11,1033.30,2026.01,2554.20,2684.14,2886.45,350.27,351.45,15.79,0000 0000 0000 0000 000000
2015-04-03 01:14:52,0.03,2.37,0.00,24.83,28.35,31.18,4.78,27.98,1033.26,2026.02,2553.63,2683.97,2885.99,349.75,351.04,15.82,0000 0000 0000 0000 000000
2015-04-03 01:19:53,0.09,2.37,0.00,24.91,28.35,31.18,4.83,28.05,1033.25,2026.01,2553.01,2683.31,2885.36,349.86,350.89,15.85,0000 0000 0000 0000 000000
2015-04-03 01:24:54,0.03,2.37,0.00,24.96,28.34,31.17,4.76,28.16,1033.25,2026.01,2552.57,2682.99,2885.00,349.45,350.65,15.88,0000 0000 0000 0000 000000
2015-04-03 01:29:55,0.05,2.38,0.00,24.92,28.32,31.19,4.86,28.22,1033.29,2026.02,2552.00,2682.79,2884.54,350.55,351.36,15.91,0000 0000 0000 0000 000000
2015-04-03 01:34:57,0.09,2.38,0.00,24.90,28.32,31.17,4.83,28.31,1033.28,2026.03,2551.29,2682.09,2884.03,349.69,350.92,15.94,0000 0000 0000 0000 000000
2015-04-03 01:39:58,0.02,2.38,0.00,24.89,28.31,31.13,4.85,28.27,1033.33,2026.08,2550.87,2682.00,2883.88,349.93,351.00,15.97,0000 0000 0000 0000 000000
2015-04-03 01:44:59,0.09,2.38,0.00,24.95,28.30,31.11,4.93,28.31,1033.32,2026.05,2550.06,2681.64,2883.09,350.04,351.13,16.00,0000 0000 0000 0000 000000
2015-04-03 01:50:01,0.06,2.38,0.00,24.95,28.29,31.10,4.83,28.23,1033.50,2026.06,2549.47,2681.03,2882.90,350.56,351.72,16.03,0000 0000 0000 0000 000000
2015-04-03 01:55:02,0.04,2.39,0.00,24.95,28.27,31.12,4.73,28.12,1033.46,2026.06,2548.97,2680.93,2882.15,349.57,350.61,16.06,0000 0000 0000 0000 000000
2015-04-03 02:00:04,0.10,2.39,0.00,24.96,28.27,31.07,4.84,28.18,1033.52,2026.10,2548.16,2680.21,2881.99,349.86,351.03,16.09,0000 0000 0000 0000 000000
2015-04-03 02:05:04,0.08,2.39,0.00,25.00,28.25,31.06,4.82,28.00,1033.67,2026.36,2547.89,2680.00,2881.66,350.34,351.45,16.12,0000 0000 0000 0000 000000
2015-04-03 02:10:06,0.08,2.39,0.00,24.97,28.25,31.03,4.76,28.10,1033.70,2026.60,2547.11,2679.86,2881.05,350.16,351.23,16.14,0000 0000 0000 0000 000000
2015-04-03 02:15:07,0.11,2.40,0.00,24.96,28.23,31.01,4.88,28.34,1033.70,2026.77,2546.67,2679.16,2880.94,349.99,350.86,16.17,0000 0000 0000 0000 000000
2015-04-03 02:20:08,0.04,2.40,0.00,25.02,28.22,31.00,4.78,28.15,1033.71,2026.81,2546.03,2679.01,2880.20,349.59,350.56,16.20,0000 0000 0000 0000 000000
2015-04-03 02:25:10,0.06,2.40,0.00,24.94,28.21,30.98,4.79,28.02,1033.71,2026.92,2545.56,2678.93,2880.00,350.21,351.34,16.23,0000 0000 0000 0000 000000
2015-04-03 02:30:11,0.07,2.40,0.00,24.95,28.20,30.98,4.80,28.15,1033.71,2026.93,2545.01,2678.19,2879.71,350.58,351.86,16.26,0000 0000 0000 0000 000000
2015-04-03 02:35:13,0.05,2.40,0.00,24.98,28.19,30.93,4.86,28.19,1033.65,2026.96,2544.44,2678.01,2879.11,350.07,351.23,16.29,0000 0000 0000 0000 000000
2015-04-03 02:40:14,0.01,2.41,0.00,24.95,28.17,30.94,4.83,28.13,1033.63,2026.98,2543.99,2677.96,2879.00,350.13,351.45,16.32,0000 0000 0000 0000 000000
2015-04-03 02:45:16,0.09,2.41,0.00,24.97,28.17,30.92,4.77,28.14,1033.49,2026.98,2543.33,2677.34,2878.91,349.81,351.11,16.35,0000 0000 0000 0000 000000
2015-04-03 02:50:17,0.05,2.41,0.00,25.02,28.17,30.87,4.82,28.31,1033.44,2026.99,2542.79,2677.00,2878.12,350.21,351.04,16.38,0000 0000 0000 0000 000000
2015-04-03 02:55:18,0.03,2.41,0.00,25.04,28.15,30.89,4.85,28.32,1033.60,2026.99,2542.07,2676.88,2877.98,349.94,351.18,16.41,0000 0000 0000 0000 000000
2015-04-03 03:00:19,0.09,2.41,0.00,24.98,28.15,30.88,4.85,28.33,1033.59,2026.99,2541.74,2676.13,2877.46,349.98,351.23,16.44,0000 0000 0000 0000 000000
2015-04-03 03:05:21,0.03,2.41,0.00,25.00,28.14,30.84,4.85,28.37,1033.46,2026.99,2541.04,2675.99,2877.03,350.20,351.21,16.47,0000 0000 0000 0000 000000
2015-04-03 03:10:22,0.07,2.42,0.00,25.01,28.12,30.84,4.76,28.22,1033.39,2027.00,2540.33,2675.75,2876.80,349.72,350.93,16.50,0000 0000 0000 0000 000000
2015-04-03 03:15:23,0.08,2.42,0.00,25.00,28.12,30.80,4.85,28.08,1033.62,2027.00,2539.73,2675.03,2876.04,350.60,351.64,16.53,0000 0000 0000 0000 000000
2015-04-03 03:20:24,0.02,2.42,0.00,25.02,28.10,30.82,4.80,28.16,1033.63,2027.00,2539.02,2674.99,2875.90,349.88,350.94,16.55,0000 0000 0000 0000 000000
2015-04-03 03:25:25,0.11,2.42,0.00,24.98,28.10,30.83,4.84,28.34,1033.58,2027.00,2538.30,2674.36,2875.14,349.94,351.30,16.58,0000 0000 0000 0000 000000
2015-04-03 03:30:26,0.04,2.42,0.00,25.00,28.09,30.81,4.83,28.41,1033.53,2027.01,2537.68,2674.00,2874.88,350.06,350.87,16.61,0000 0000 0000 0000 000000
2015-04-03 03:35:28,0.10,2.43,0.00,24.97,28.07,30.77,4.77,28.01,1033.57,2027.03,2536.88,2673.45,2874.08,350.01,351.14,16.64,0000 0000 0000 0000 000000
2015-04-03 03:40:29,0.05,2.43,0.00,25.05,28.07,30.76,4.81,28.18,1033.44,2027.03,2536.05,2673.00,2873.71,349.89,350.92,16.67,0000 0000 0000 0000 000000
2015-04-03 03:45:30,0.10,2.43,0.00,25.00,28.07,30.77,4.78,28.20,1033.29,2027.04,2535.20,2672.56,2873.03,349.90,351.01,16.70,0000 0000 0000 0000 000000
2015-04-03 03:50:32,0.07,2.43,0.00,24.99,28.05,30.83,4.77,28.26,1033.24,2027.05,2534.38,2672.01,2872.61,349.75,350.66,16.73,0000 0000 0000 0000 000000
2015-04-03 03:55:33,0.08,2.44,0.00,24.97,28.05,30.78,4.81,28.23,1033.24,2027.13,2533.66,2671.80,2872.02,350.46,351.50,16.76,0000 0000 0000 0000 000000
2015-04-03 04:00:34,0.10,2.44,0.00,25.00,28.04,30.77,4.85,28.16,1033.29,2027.22,2532.95,2671.07,2871.65,350.07,351.02,16.79,0000 0000 0000 0000 000000
2015-04-03 04:05:36,0.10,2.44,0.00,25.09,28.03,30.74,4.78,28.25,1033.26,2027.48,2532.12,2670.86,2871.02,349.86,350.65,16.82,0000 0000 0000 0000 000000
2015-04-03 04:10:37,0.10,2.44,0.00,25.03,28.02,30.75,4.84,28.28,1033.25,2027.48,2531.20,2670.07,2870.39,350.61,351.41,16.85,0000 0000 0000 0000 000000
2015-04-03 04:15:38,0.18,2.45,0.00,25.05,28.02,30.77,4.89,28.01,1033.28,2027.72,2530.08,2669.45,2869.71,350.38,351.33,16.88,0000 0000 0000 0000 000000
2015-04-03 04:20:40,0.06,2.45,0.00,25.08,28.02,30.70,4.79,28.13,1033.28,2027.79,2528.96,2668.92,2869.01,349.84,350.65,16.91,0000 0000 0000 0000 000000
2015-04-03 04:25:41,0.14,2.46,0.00,25.06,28.02,30.74,4.83,28.18,1033.24,2027.84,2527.64,2668.09,2868.13,349.91,350.89,16.94,0000 0000 0000 0000 000000
2015-04-03 04:30:42,0.20,2.46,0.00,25.08,28.00,30.72,4.82,28.16,1033.23,2027.87,2525.74,2667.14,2866.97,349.88,350.69,16.96,0000 0000 0000 0000 000000
2015-04-03 04:35:44,0.25,2.47,0.00,25.08,28.00,30.71,4.81,28.13,1033.25,2027.94,2523.66,2665.84,2865.57,350.38,351.17,16.99,0000 0000 0000 0000 000000
2015-04-03 04:40:45,0.27,2.48,0.00,25.05,28.00,30.74,4.81,28.01,1033.30,2027.97,2520.85,2664.14,2863.72,350.32,351.34,17.02,0000 0000 0000 0000 000000
2015-04-03 04:45:46,0.28,2.48,0.00,25.08,28.00,30.71,4.80,28.16,1033.41,2027.95,2518.24,2662.52,2861.81,349.81,350.50,17.05,0000 0000 0000 0000 000000
2015-04-03 04:50:47,0.20,2.49,0.00,25.07,28.00,30.72,4.83,28.32,1033.55,2027.97,2515.94,2661.10,2860.37,350.14,351.03,17.08,0000 0000 0000 0000 000000
2015-04-03 04:55:49,0.16,2.50,0.00,25.05,27.98,30.73,4.82,28.26,1033.51,2027.98,2514.16,2659.98,2859.01,349.88,350.89,17.11,0000 0000 0000 0000 000000
2015-04-03 05:00:50,0.14,2.50,0.00,25.03,27.97,30.67,4.83,28.31,1033.55,2027.98,2512.80,2659.09,2858.06,349.26,350.29,17.14,0000 0000 0000 0000 000000
2015-04-03 05:05:51,0.14,2.50,0.00,25.05,27.97,30.68,4.87,28.28,1033.58,2027.99,2511.57,2658.38,2857.17,350.57,351.67,17.17,0000 0000 0000 0000 000000
2015-04-03 05:10:53,0.11,2.51,0.00,25.05,27.97,30.67,4.75,27.96,1033.56,2027.99,2510.33,2657.76,2856.42,349.53,350.58,17.20,0000 0000 0000 0000 000000
2015-04-03 05:15:54,0.10,2.51,0.00,25.04,27.96,30.66,4.88,28.23,1033.56,2027.99,2509.00,2657.02,2855.62,350.16,351.24,17.23,0000 0000 0000 0000 000000
2015-04-03 05:20:55,0.14,2.52,0.00,25.03,27.95,30.65,4.82,28.09,1033.57,2027.99,2507.82,2656.26,2854.73,350.37,351.46,17.26,0000 0000 0000 0000 000000
2015-04-03 05:25:57,0.11,2.52,0.00,25.11,27.95,30.62,4.83,28.18,1033.67,2027.99,2506.59,2655.61,2853.95,349.64,350.83,17.29,0000 0000 0000 0000 000000
2015-04-03 05:30:58,0.11,2.52,0.00,25.07,27.95,30.63,4.82,28.02,1033.66,2027.99,2505.40,2654.84,2853.06,350.13,350.99,17.32,0000 0000 0000 0000 000000
2015-04-03 05:35:59,0.12,2.53,0.00,25.10,27.95,30.65,4.83,28.32,1033.69,2027.99,2504.19,2654.03,2852.12,349.62,351.07,17.35,0000 0000 0000 0000 000000
2015-04-03 05:41:00,0.15,2.53,0.00,25.03,27.95,30.64,4.81,28.23,1033.71,2027.99,2502.74,2653.16,2851.21,350.13,351.33,17.37,0000 0000 0000 0000 000000
2015-04-03 05:46:02,0.12,2.53,0.00,25.09,27.94,30.60,4.83,28.22,1033.71,2027.99,2501.64,2652.50,2850.46,350.17,351.07,17.40,0000 0000 0000 0000 000000
2015-04-03 05:51:03,0.10,2.54,0.00,25.06,27.93,30.62,4.79,28.34,1033.70,2027.99,2500.51,2651.87,2849.68,349.97,350.85,17.43,0000 0000 0000 0000 000000
2015-04-03 05:56:04,0.09,2.54,0.00,25.08,27.92,30.62,4.90,28.31,1033.70,2027.99,2499.59,2651.08,2848.97,350.63,351.71,17.46,0000 0000 0000 0000 000000
2015-04-03 06:01:05,0.10,2.54,0.00,25.08,27.92,30.62,4.75,28.18,1033.69,2027.99,2498.67,2650.68,2848.14,349.68,350.75,17.49,0000 0000 0000 0000 000000
2015-04-03 06:06:07,0.09,2.55,0.00,25.10,27.92,30.58,4.90,28.34,1033.70,2027.99,2497.66,2650.00,2847.52,350.50,351.54,17.52,0000 0000 0000 0000 000000
2015-04-03 06:11:08,0.13,2.55,0.00,25.09,27.92,30.60,4.79,28.29,1033.70,2027.99,2496.51,2649.17,2846.70,349.67,350.73,17.55,0000 0000 0000 0000 000000
2015-04-03 06:16:09,0.12,2.55,0.00,25.12,27.92,30.61,4.87,28.22,1033.69,2028.01,2495.34,2648.42,2845.84,350.25,350.84,17.58,0000 0000 0000 0000 000000
2015-04-03 06:21:11,0.11,2.56,0.00,25.13,27.91,30.63,4.80,28.30,1033.70,2028.01,2494.17,2647.69,2844.96,349.69,350.66,17.61,0000 0000 0000 0000 000000
2015-04-03 06:26:12,0.10,2.56,0.00,25.11,27.90,30.63,4.84,28.09,1033.71,2028.01,2493.04,2647.00,2844.08,349.80,350.94,17.64,0000 0000 0000 0000 000000
2015-04-03 06:31:13,0.11,2.56,0.00,25.09,27.90,30.61,4.81,28.17,1033.71,2028.01,2492.10,2646.24,2843.37,349.82,351.00,17.67,0000 0000 0000 0000 000000
2015-04-03 06:36:14,0.13,2.57,0.00,25.09,27.90,30.63,4.85,28.31,1033.70,2028.02,2490.88,2645.65,2842.70,350.33,351.51,17.70,0000 0000 0000 0000 000000
2015-04-03 06:41:15,0.08,2.57,0.00,25.10,27.90,30.61,4.81,28.19,1033.71,2028.02,2489.70,2644.97,2841.90,350.13,350.93,17.73,0000 0000 0000 0000 000000
2015-04-03 06:46:17,0.14,2.58,0.00,25.11,27.90,30.60,4.77,28.26,1033.71,2028.06,2488.52,2644.13,2841.06,349.68,351.38,17.76,0000 0000 0000 0000 000000
2015-04-03 06:51:18,0.11,2.58,0.00,25.14,27.88,30.58,4.80,28.00,1033.71,2028.05,2487.52,2643.63,2840.30,350.54,351.54,17.78,0000 0000 0000 0000 000000
2015-04-03 06:56:19,0.09,2.58,0.00,25.14,27.87,30.57,4.77,28.18,1033.71,2028.04,2486.46,2642.96,2839.56,349.53,350.38,17.81,0000 0000 0000 0000 000000
2015-04-03 07:01:20,0.11,2.58,0.00,25.15,27.87,30.56,4.77,28.19,1033.71,2028.04,2485.24,2642.12,2838.75,350.02,350.98,17.84,0000 0000 0000 0000 000000
2015-04-03 07:06:21,0.11,2.59,0.00,25.10,27.87,30.55,4.87,28.26,1033.71,2028.04,2484.23,2641.52,2837.99,350.16,351.34,17.87,0000 0000 0000 0000 000000
2015-04-03 07:11:23,0.09,2.59,0.00,25.13,27.87,30.56,4.81,28.18,1033.71,2028.07,2483.04,2640.95,2837.17,350.12,351.13,17.90,0000 0000 0000 0000 000000
2015-04-03 07:16:24,0.13,2.59,0.00,25.12,27.86,30.55,4.75,28.30,1033.71,2028.08,2482.07,2640.15,2836.60,350.05,351.08,17.93,0000 0000 0000 0000 000000
2015-04-03 07:21:25,0.07,2.60,0.00,25.12,27.85,30.55,4.81,28.26,1033.71,2028.08,2481.13,2639.80,2835.89,349.26,350.20,17.96,0000 0000 0000 0000 000000
2015-04-03 07:26:26,0.11,2.60,0.00,25.08,27.85,30.57,4.80,28.29,1033.71,2028.05,2480.07,2639.05,2835.07,349.96,350.88,17.99,0000 0000 0000 0000 000000
2015-04-03 07:31:27,0.10,2.60,0.00,25.14,27.85,30.54,4.83,28.21,1033.71,2028.11,2479.17,2638.71,2834.55,350.08,351.02,18.02,0000 0000 0000 0000 000000
2015-04-03 07:36:28,0.08,2.61,0.00,25.11,27.85,30.57,4.82,28.17,1033.71,2028.12,2478.26,2638.03,2833.98,350.31,351.24,18.05,0000 0000 0000 0000 000000
2015-04-03 07:41:30,0.13,2.61,0.00,25.10,27.85,30.58,4.83,28.26,1033.73,2028.20,2477.20,2637.61,2833.20,349.86,351.03,18.08,0000 0000 0000 0000 000000
2015-04-03 07:46:31,0.08,2.61,0.00,25.08,27.84,30.57,4.84,28.36,1033.75,2028.19,2476.29,2637.01,2832.80,349.68,350.89,18.11,0000 0000 0000 0000 000000
2015-04-03 07:51:33,0.10,2.61,0.00,25.05,27.83,30.53,4.84,28.23,1033.84,2028.20,2475.24,2636.46,2831.91,350.16,351.30,18.14,0000 0000 0000 0000 000000
2015-04-03 07:56:34,0.19,2.62,0.00,25.07,27.82,30.54,4.80,28.13,1033.90,2028.25,2473.59,2635.42,2830.88,350.00,351.12,18.17,0000 0000 0000 0000 000000
2015-04-03 08:01:35,0.14,2.63,0.00,25.08,27.82,30.52,4.75,28.32,1033.83,2028.53,2472.33,2634.80,2830.02,349.59,350.32,18.20,0000 0000 0000 0000 000000
2015-04-03 08:06:36,0.09,2.63,0.00,25.08,27.82,30.58,4.80,28.29,1033.87,2028.42,2471.35,2634.04,2829.29,349.60,350.79,18.22,0000 0000 0000 0000 000000
2015-04-03 08:11:38,0.16,2.63,0.00,25.05,27.82,30.54,4.92,28.38,1034.07,2028.31,2469.67,2633.17,2828.28,350.63,351.86,18.25,0000 0000 0000 0000 000000
2015-04-03 08:16:39,0.28,2.64,0.00,25.09,27.82,30.54,4.79,28.13,1034.18,2028.59,2467.72,2631.98,2826.82,349.77,350.84,18.28,0000 0000 0000 0000 000000
2015-04-03 08:21:40,0.16,2.64,0.00,25.06,27.82,30.52,4.84,28.43,1034.19,2028.69,2465.97,2631.01,2825.69,349.74,350.73,18.31,0000 0000 0000 0000 000000
2015-04-03 08:26:42,0.15,2.65,0.00,25.04,27.82,30.54,4.87,28.17,1034.19,2028.76,2464.46,2630.11,2824.77,350.43,351.75,18.34,0000 0000 0000 0000 000000
2015-04-03 08:31:43,0.15,2.65,0.00,25.04,27.82,30.51,4.86,28.23,1034.19,2028.69,2462.92,2629.27,2823.90,350.46,351.74,18.37,0000 0000 0000 0000 000000
2015-04-03 08:36:44,0.11,2.66,0.00,25.03,27.81,30.54,4.81,28.15,1034.19,2028.83,2461.62,2628.92,2823.05,350.17,351.56,18.40,0000 0000 0000 0000 000000
2015-04-03 08:41:45,0.14,2.66,0.00,25.05,27.80,30.52,4.82,28.09,1034.20,2028.90,2460.45,2628.13,2822.25,350.32,351.73,18.43,0000 0000 0000 0000 000000
2015-04-03 08:46:46,0.12,2.66,0.00,25.07,27.80,30.52,4.87,28.32,1034.20,2028.92,2459.11,2627.65,2821.43,349.90,351.25,18.46,0000 0000 0000 0000 000000
2015-04-03 08:51:47,0.09,2.67,0.00,25.03,27.80,30.49,4.79,28.23,1034.21,2028.74,2457.57,2626.88,2820.49,349.80,351.23,18.49,0000 0000 0000 0000 000000
2015-04-03 08:56:48,0.16,2.67,0.00,25.04,27.80,30.48,4.81,28.18,1034.21,2028.81,2456.19,2626.07,2819.62,349.94,351.16,18.52,0000 0000 0000 0000 000000
2015-04-03 09:01:50,0.17,2.68,0.00,25.03,27.80,30.50,4.79,28.16,1034.21,2028.94,2454.63,2625.44,2818.80,349.66,351.50,18.55,0000 0000 0000 0000 000000
2015-04-03 09:06:51,0.11,2.68,0.00,25.00,27.80,30.46,4.83,28.21,1034.21,2028.96,2453.19,2624.76,2817.89,350.20,351.55,18.58,0000 0000 0000 0000 000000
2015-04-03 09:11:52,0.19,2.69,0.00,25.04,27.80,30.47,4.81,28.03,1034.22,2028.90,2451.22,2623.73,2816.76,350.21,351.55,18.60,0000 0000 0000 0000 000000
2015-04-03 09:16:54,0.13,2.69,0.00,25.01,27.80,30.48,4.85,28.43,1034.22,2028.90,2449.27,2622.99,2815.76,350.02,351.52,18.63,0000 0000 0000 0000 000000
2015-04-03 09:21:55,0.15,2.70,0.00,25.00,27.80,30.55,4.79,28.36,1034.25,2028.87,2447.76,2622.17,2814.81,349.68,350.85,18.66,0000 0000 0000 0000 000000
2015-04-03 09:26:56,0.14,2.70,0.00,24.99,27.80,30.54,4.85,28.24,1034.25,2028.83,2446.41,2621.53,2813.99,349.59,351.05,18.69,0000 0000 0000 0000 000000
2015-04-03 09:31:57,0.09,2.70,0.00,25.00,27.80,30.55,4.77,28.17,1034.38,2028.91,2445.12,2620.98,2813.12,349.90,351.07,18.72,0000 0000 0000 0000 000000
2015-04-03 09:36:58,0.14,2.71,0.00,25.02,27.80,30.56,4.80,28.17,1034.56,2028.86,2443.85,2620.16,2812.36,349.65,351.05,18.75,0000 0000 0000 0000 000000
2015-04-03 09:42:00,0.12,2.71,0.00,24.98,27.80,30.56,4.78,28.32,1034.62,2028.92,2442.64,2619.70,2811.73,349.61,351.15,18.78,0000 0000 0000 0000 000000
2015-04-03 09:47:01,0.09,2.71,0.00,24.97,27.80,30.56,4.77,28.12,1034.64,2028.93,2441.53,2619.03,2810.96,349.31,350.94,18.81,0000 0000 0000 0000 000000
2015-04-03 09:52:02,0.13,2.72,0.00,24.92,27.80,30.54,4.80,28.24,1034.65,2028.94,2440.31,2618.28,2810.09,349.75,351.43,18.84,0000 0000 0000 0000 000000
2015-04-03 09:57:04,0.14,2.72,0.00,24.93,27.80,30.55,4.77,28.27,1034.64,2028.95,2438.89,2617.60,2809.17,349.68,351.22,18.87,0000 0000 0000 0000 000000
2015-04-03 10:02:05,0.13,2.73,0.00,25.00,27.80,30.56,4.82,28.11,1034.63,2028.92,2437.54,2616.73,2808.14,350.28,351.69,18.90,0000 0000 0000 0000 000000
2015-04-03 10:07:06,0.08,2.73,0.00,25.01,27.81,30.57,4.78,28.13,1034.65,2028.81,2436.33,2616.02,2807.30,349.80,351.44,18.93,0000 0000 0000 0000 000000
2015-04-03 10:12:07,0.13,2.73,0.00,25.01,27.82,30.55,4.83,28.00,1034.67,2028.84,2435.05,2615.37,2806.63,350.18,351.67,18.96,0000 0000 0000 0000 000000
2015-04-03 10:17:09,0.08,2.73,0.00,24.95,27.82,30.53,4.81,28.27,1034.67,2028.44,2433.57,2614.46,2805.53,349.68,351.28,18.99,0000 0000 0000 0000 000000
2015-04-03 10:22:10,0.20,2.74,0.00,24.97,27.82,30.59,4.79,28.26,1034.68,2028.49,2431.92,2613.45,2804.39,349.47,351.24,19.01,0000 0000 0000 0000 000000
2015-04-03 10:27:11,0.08,2.74,0.00,24.97,27.82,30.59,4.80,28.10,1034.68,2028.47,2430.72,2612.86,2803.54,349.57,351.35,19.04,0000 0000 0000 0000 000000
2015-04-03 10:32:13,0.18,2.75,0.00,24.93,27.82,30.57,4.84,28.33,1034.68,2028.60,2429.45,2612.06,2802.80,350.25,351.82,19.07,0000 0000 0000 0000 000000
2015-04-03 10:37:14,0.13,2.75,0.00,24.94,27.82,30.58,4.81,28.27,1034.68,2028.73,2428.13,2611.36,2801.97,349.85,351.30,19.10,0000 0000 0000 0000 000000
2015-04-03 10:42:15,0.09,2.76,0.00,24.92,27.84,30.61,4.83,28.31,1034.68,2028.70,2426.88,2610.73,2801.07,350.47,352.05,19.13,0000 0000 0000 0000 000000
2015-04-03 10:47:17,0.08,2.76,0.00,24.95,27.85,30.61,4.82,28.38,1034.68,2028.30,2425.42,2609.91,2800.07,350.26,351.59,19.16,0000 0000 0000 0000 000000
2015-04-03 10:52:18,0.10,2.76,0.00,24.94,27.85,30.60,4.92,28.51,1034.68,2028.12,2424.19,2609.07,2799.16,350.46,351.97,19.19,0000 0000 0000 0000 000000
2015-04-03 10:57:19,0.15,2.77,0.00,24.92,27.85,30.60,4.87,28.33,1034.68,2028.19,2422.92,2608.46,2798.38,350.77,352.15,19.22,0000 0000 0000 0000 000000
2015-04-03 11:02:21,0.14,2.77,0.00,24.89,27.85,30.63,4.84,28.27,1034.68,2028.27,2421.59,2607.79,2797.58,349.86,351.47,19.25,0000 0000 0000 0000 000000
2015-04-03 11:07:22,0.14,2.77,0.00,24.89,27.86,30.66,4.89,28.41,1034.68,2028.43,2420.43,2607.04,2796.79,350.44,351.84,19.28,0000 0000 0000 0000 000000
2015-04-03 11:12:24,0.07,2.78,0.00,24.97,27.87,30.65,4.87,28.30,1034.68,2028.18,2419.24,2606.26,2795.96,350.34,351.87,19.31,0000 0000 0000 0000 000000
2015-04-03 11:17:25,0.10,2.78,0.00,24.95,27.87,30.66,4.74,28.23,1034.69,2028.08,2418.07,2605.72,2795.09,350.19,351.82,19.34,0000 0000 0000 0000 000000
2015-04-03 11:22:26,0.12,2.78,0.00,25.00,27.87,30.70,4.87,28.32,1034.70,2028.02,2416.78,2604.95,2794.32,349.97,351.34,19.37,0000 0000 0000 0000 000000
2015-04-03 11:27:28,0.15,2.79,0.00,24.88,27.88,30.72,4.79,28.32,1034.71,2028.03,2415.48,2604.08,2793.41,349.36,350.94,19.40,0000 0000 0000 0000 000000
2015-04-03 11:32:29,0.14,2.79,0.00,24.88,27.90,30.73,4.78,28.40,1034.70,2028.04,2414.18,2603.26,2792.50,349.99,351.58,19.43,0000 0000 0000 0000 000000
2015-04-03 11:37:30,0.10,2.79,0.00,24.94,27.90,30.72,4.83,28.36,1034.70,2028.04,2413.10,2602.70,2791.72,350.03,351.69,19.45,0000 0000 0000 0000 000000
2015-04-03 11:42:31,0.10,2.80,0.00,24.94,27.90,30.73,4.77,28.22,1034.69,2028.01,2411.94,2601.97,2790.89,349.36,351.25,19.48,0000 0000 0000 0000 000000
2015-04-03 11:47:33,0.15,2.80,0.00,24.91,27.90,30.71,4.80,28.19,1034.71,2028.00,2410.71,2601.09,2789.92,350.03,351.61,19.51,0000 0000 0000 0000 000000
2015-04-03 11:52:34,0.21,2.81,0.00,24.86,27.91,30.72,4.77,28.27,1034.70,2028.00,2408.82,2600.02,2788.66,348.91,350.52,19.54,0000 0000 0000 0000 000000
2015-04-03 11:57:36,0.16,2.81,0.00,24.85,27.92,30.76,4.81,28.30,1034.69,2028.00,2407.19,2599.04,2787.53,349.96,351.85,19.57,0000 0000 0000 0000 000000
2015-04-03 12:02:37,0.14,2.82,0.00,24.85,27.92,30.77,4.79,28.24,1034.69,2028.01,2405.84,2598.16,2786.79,349.83,351.59,19.60,0000 0000 0000 0000 000000
2015-04-03 12:07:38,0.09,2.82,0.00,24.89,27.92,30.75,4.77,28.21,1034.70,2028.01,2404.79,2597.81,2786.02,349.28,350.91,19.63,0000 0000 0000 0000 000000
2015-04-03 12:12:39,0.12,2.82,0.00,24.93,27.94,30.71,4.82,28.14,1034.69,2028.01,2403.69,2597.04,2785.22,350.37,351.70,19.66,0000 0000 0000 0000 000000
2015-04-03 12:17:41,0.13,2.83,0.00,24.87,27.95,30.75,4.81,28.34,1034.68,2028.00,2402.56,2596.43,2784.56,349.96,351.65,19.69,0000 0000 0000 0000 000000
2015-04-03 12:22:42,0.06,2.83,0.00,24.87,27.95,30.76,4.82,28.33,1034.68,2028.00,2401.54,2595.99,2783.99,349.56,351.40,19.72,0000 0000 0000 0000 000000
2015-04-03 12:27:43,0.13,2.83,0.00,24.84,27.95,30.78,4.85,28.43,1034.68,2028.00,2400.44,2595.26,2783.15,349.93,351.62,19.75,0000 0000 0000 0000 000000
2015-04-03 12:32:45,0.08,2.84,0.00,24.82,27.96,30.82,4.88,28.43,1034.68,2028.00,2399.38,2594.92,2782.45,350.23,352.15,19.78,0000 0000 0000 0000 000000
2015-04-03 12:37:46,0.12,2.84,0.00,24.87,27.97,30.80,4.80,28.31,1034.68,2028.00,2398.19,2594.09,2781.78,350.22,351.90,19.81,0000 0000 0000 0000 000000
2015-04-03 12:42:47,0.11,2.84,0.00,24.88,27.97,30.79,4.86,28.36,1034.68,2028.00,2397.06,2593.63,2781.00,350.39,351.88,19.83,0000 0000 0000 0000 000000
2015-04-03 12:47:48,0.10,2.85,0.00,24.88,27.98,30.81,4.94,28.38,1034.67,2028.00,2395.95,2593.00,2780.17,350.89,352.37,19.86,0000 0000 0000 0000 000000
2015-04-03 12:52:49,0.13,2.85,0.00,24.89,28.00,30.81,4.91,28.42,1034.63,2027.99,2394.88,2592.29,2779.47,350.15,351.74,19.89,0000 0000 0000 0000 000000
2015-04-03 12:57:50,0.08,2.85,0.00,24.88,28.00,30.79,4.87,28.45,1034.65,2027.98,2393.74,2591.90,2778.82,350.10,351.97,19.92,0000 0000 0000 0000 000000
2015-04-03 13:02:51,0.18,2.86,0.00,24.83,28.00,30.78,4.90,28.39,1034.57,2027.99,2392.20,2590.92,2777.79,349.84,351.37,19.95,0000 0000 0000 0000 000000